TimeCST,TemperatureF,Dew PointF,Humidity,Sea Level PressureIn,VisibilityMPH,Wind Direction,Wind SpeedMPH,Gust SpeedMPH,PrecipitationIn,Events,Conditions,WindDirDegrees,DateUTC
12:55 AM,36.0,21.0,55,30.14,10.0,SW,13.8,20.7,N/A,,Clear,230,2012-12-31 06:55:00
1:55 AM,36.0,21.0,55,30.14,10.0,SW,11.5,21.9,N/A,,Scattered Clouds,230,2012-12-31 07:55:00
2:55 AM,36.0,21.0,55,30.15,10.0,SW,10.4,-,N/A,,Mostly Cloudy,230,2012-12-31 08:55:00
3:55 AM,35.1,21.9,59,30.13,10.0,WSW,10.4,-,N/A,,Overcast,240,2012-12-31 09:55:00
4:55 AM,35.1,21.9,59,30.14,10.0,WSW,6.9,-,N/A,,Partly Cloudy,240,2012-12-31 10:55:00
5:55 AM,33.8,21.2,60,30.11,10.0,WSW,8.1,-,N/A,,Overcast,240,2012-12-31 11:55:00
6:55 AM,34.0,21.9,61,30.15,10.0,WSW,3.5,-,N/A,,Overcast,240,2012-12-31 12:55:00
7:55 AM,34.0,23.0,64,30.15,10.0,WSW,3.5,-,N/A,,Overcast,250,2012-12-31 13:55:00
8:29 AM,33.8,24.8,70,30.12,2.5,WNW,8.1,-,0.00,Snow,Light Snow,290,2012-12-31 14:29:00
8:38 AM,32.0,26.6,80,30.12,0.8,West,6.9,-,0.01,Snow,Light Snow,280,2012-12-31 14:38:00
8:48 AM,30.2,28.4,93,30.13,0.5,WNW,5.8,-,0.01,Fog-Snow,Snow,290,2012-12-31 14:48:00
8:55 AM,30.9,28.9,92,30.17,0.2,WNW,4.6,-,0.02,Fog-Snow,Snow,290,2012-12-31 14:55:00
9:07 AM,30.2,28.4,93,30.12,0.2,NW,4.6,-,0.02,Fog-Snow,Snow,320,2012-12-31 15:07:00
9:25 AM,30.2,28.4,93,30.13,0.5,NW,4.6,-,0.03,Fog-Snow,Snow,320,2012-12-31 15:25:00
9:36 AM,30.2,28.4,93,30.13,0.5,North,4.6,-,0.04,Fog-Snow,Snow,350,2012-12-31 15:36:00
9:55 AM,30.0,28.9,96,30.18,0.5,NNW,3.5,-,0.06,Fog-Snow,Snow,330,2012-12-31 15:55:00
10:21 AM,30.2,28.4,93,30.15,0.5,NNW,3.5,-,0.02,Fog-Snow,Light Snow,340,2012-12-31 16:21:00
10:37 AM,30.2,28.4,93,30.16,0.5,NW,3.5,-,0.03,Fog-Snow,Snow,310,2012-12-31 16:37:00
10:47 AM,30.2,28.4,93,30.16,0.5,NNW,4.6,-,N/A,Fog-Snow,Snow,340,2012-12-31 16:47:00
10:55 AM,28.9,27.0,92,30.20,0.5,North,6.9,-,0.05,Fog-Snow,Snow,350,2012-12-31 16:55:00
11:14 AM,28.4,26.6,93,30.15,0.5,North,5.8,-,0.02,Fog-Snow,Snow,350,2012-12-31 17:14:00
11:52 AM,28.4,26.6,93,30.13,0.8,North,8.1,-,0.05,Snow,Light Snow,360,2012-12-31 17:52:00
11:55 AM,28.0,26.1,92,30.17,0.8,North,6.9,-,0.05,Snow,Light Snow,350,2012-12-31 17:55:00
11:59 AM,28.4,26.6,93,30.13,0.5,North,8.1,-,0.00,Fog-Snow,Snow,10,2012-12-31 17:59:00
12:08 PM,26.6,24.8,93,30.12,0.5,NNE,8.1,-,0.01,Fog-Snow,Light Snow,20,2012-12-31 18:08:00
12:15 PM,28.4,24.8,86,30.12,0.8,NNE,8.1,-,0.01,Snow,Light Snow,20,2012-12-31 18:15:00
12:24 PM,28.4,24.8,86,30.12,1.0,North,8.1,-,0.01,Snow,Light Snow,10,2012-12-31 18:24:00
12:32 PM,26.6,24.8,93,30.13,1.0,North,6.9,-,0.01,Snow,Light Snow,360,2012-12-31 18:32:00
12:53 PM,26.6,24.8,93,30.11,1.5,North,9.2,-,0.02,Snow,Light Snow,360,2012-12-31 18:53:00
12:55 PM,27.0,23.0,85,30.15,1.5,North,8.1,-,0.02,Snow,Light Snow,360,2012-12-31 18:55:00
1:06 PM,26.6,23.0,86,30.10,1.5,North,10.4,-,0.00,Snow,Light Snow,350,2012-12-31 19:06:00
1:19 PM,26.6,23.0,86,30.10,1.0,North,9.2,-,0.00,Snow,Light Snow,360,2012-12-31 19:19:00
1:26 PM,26.6,21.2,80,30.11,1.5,North,8.1,-,0.00,Snow,Light Snow,360,2012-12-31 19:26:00
1:33 PM,24.8,21.2,86,30.09,2.0,North,10.4,-,0.00,Snow,Light Snow,10,2012-12-31 19:33:00
1:55 PM,25.0,21.0,85,30.13,3.0,North,8.1,-,0.00,Snow,Light Snow,350,2012-12-31 19:55:00
2:35 PM,24.8,19.4,80,30.10,6.0,North,6.9,-,0.00,,Haze,360,2012-12-31 20:35:00
2:55 PM,25.0,19.0,78,30.14,5.0,North,10.4,-,0.00,Snow,Light Snow,10,2012-12-31 20:55:00
3:55 PM,24.1,18.0,77,30.14,10.0,NNE,9.2,-,0.00,,Overcast,20,2012-12-31 21:55:00
4:55 PM,24.1,18.0,77,30.14,10.0,North,8.1,-,N/A,,Overcast,10,2012-12-31 22:55:00
5:55 PM,23.0,16.0,74,30.16,8.0,North,8.1,-,0.00,Snow,Light Snow,10,2012-12-31 23:55:00
6:55 PM,21.9,15.1,75,30.18,10.0,North,9.2,-,0.00,,Overcast,360,2013-01-01 00:55:00
7:55 PM,21.0,14.0,74,30.18,10.0,North,10.4,-,N/A,,Overcast,10,2013-01-01 01:55:00
8:55 PM,19.4,14.0,80,30.15,10.0,North,10.4,-,N/A,,Overcast,360,2013-01-01 02:55:00
9:55 PM,19.0,12.9,77,30.20,10.0,NNE,12.7,-,N/A,,Overcast,20,2013-01-01 03:55:00
10:55 PM,19.0,14.0,81,30.22,7.0,North,10.4,-,0.00,Snow,Light Snow,10,2013-01-01 04:55:00
11:55 PM,19.0,12.9,77,30.22,10.0,North,9.2,-,0.00,,Overcast,10,2013-01-01 05:55:00